Location: Newark
(49.8969°N, 3.3422°E)
Time: 04:38:55
(UTC+00:00)

Vanguard 3 - Visible Passes

Search period start: 28 January 2020 00:00
Search period end: 07 February 2020 00:00
Orbit: 507 x 3264 km, 33.4° (Epoch: 27 January)

Date Brightness Start Highest point End Pass type
(mag) Time Alt. Az. Time Alt. Az. Time Alt. Az.
28 Jan 10.8 16:34:52 10° SW 16:51:59 40° SSE 17:07:41 10° ESE visible
28 Jan 10.3 18:48:27 10° WSW 19:06:23 44° S 19:16:12 23° SE visible
28 Jan 10.3 21:04:47 10° W 21:19:32 32° SSW 21:20:46 31° SSW visible
29 Jan 10.6 17:32:30 10° WSW 17:50:26 45° S 18:05:56 10° ESE visible
29 Jan 10.2 19:47:28 10° WSW 20:04:33 40° SSW 20:11:01 30° SSE visible
29 Jan 10.7 22:05:26 10° W 22:15:35 21° SW 22:15:35 21° SW visible
30 Jan 10.5 18:30:54 10° WSW 18:48:54 45° S 19:01:18 17° SE visible
30 Jan 10.4 20:47:08 10° W 21:02:12 31° SSW 21:05:53 28° SSW visible
31 Jan 10.7 17:15:06 10° WSW 17:32:51 46° S 17:49:08 10° ESE visible
31 Jan 10.4 19:29:54 10° W 19:47:05 39° SSW 19:56:12 23° SSE visible
31 Jan 10.8 21:48:02 10° W 21:59:12 20° SW 22:00:47 20° SW visible
01 Feb 10.7 18:13:29 10° WSW 18:31:21 45° S 18:46:35 11° SE visible
01 Feb 10.5 20:29:37 10° W 20:44:44 30° SW 20:51:11 23° S visible
02 Feb 10.8 16:57:52 10° WSW 17:15:13 46° S 17:32:12 10° ESE visible
02 Feb 10.7 19:12:28 10° W 19:29:33 38° SSW 19:41:38 16° SSE visible
02 Feb 10.9 21:30:48 10° W 21:41:45 19° SW 21:46:13 17° SSW visible
03 Feb 10.8 17:56:14 10° WSW 18:13:44 44° SSW 18:29:53 10° SE visible
03 Feb 10.8 20:12:15 10° W 20:27:12 29° SW 20:36:45 17° S visible
04 Feb 10.9 18:55:11 10° W 19:11:56 37° SSW 19:26:45 10° SSE visible
04 Feb 11.0 21:13:47 10° W 21:24:14 18° SW 21:31:57 12° SSW visible
05 Feb 10.9 17:39:09 10° WSW 17:56:05 43° SSW 18:12:45 10° SE visible
05 Feb 11.0 19:55:02 10° W 20:09:35 27° SW 20:22:20 10° SSE visible
06 Feb 11.0 18:38:05 10° W 18:54:16 35° SSW 19:09:30 10° SSE visible
06 Feb 11.2 20:57:06 10° WSW 21:06:39 16° SW 21:15:18 10° SSW visible
